Voltar ao catálogo

FENGYUN 1C DEB

AtivoSSO
NORAD 31691·DEBRIS·🇨🇳 China

Lançado May 10, 1999 de Taiyuan Satellite Launch Center

Loading…

Próximas Passagens (próximas 24 horas)

TLE

EnvelhecendoSource: Space-Track

Época: Sep 8, 2026, 02:08 UTC

1 31691U 99025CCZ 26251.08928168  .00003273  00000-0  12997-2 0  9998
2 31691  98.8773 346.6876 0060143 177.7770 182.3690 14.28464707679547

Acompanhe FENGYUN 1C DEB em tempo real com AllMySat

Download on the App Store